This demonstration page uses our WeatherBlox Daily Observations layout. Learn more.

Left ArrowRight Arrow

39.12711, -84.51439

Hourly Observations for July 26, 2021

Temp ( °F °C ) Dew Point ( °F °C ) Humidity (%) Winds ( mph kmh ) Pressure ( in mb ) Visibility ( mi km ) Precip ( " mm )
12:53 am 00:53 Mostly Clear 73 22.8 71 21.7 94 94 N N/A 29.94 1014 9 14 N/A
1:53 am 01:53 Clear 72 22.2 71 21.7 97 97 N N/A 29.94 1014 7 11 N/A
2:10 am 02:10 Clear with Mist and Fog 71 21.7 70 21.1 96 96 N N/A 29.95 1014 3 4 N/A
2:19 am 02:19 Clear 72 22.2 70 21.1 94 94 N N/A 29.94 1014 8 13 N/A
2:53 am 02:53 Clear 71 21.7 70 21.1 96 96 NE 3 6 29.94 1014 7 11 N/A
3:53 am 03:53 Clear with Mist and Fog 71 21.7 70 21.1 96 96 N N/A 29.94 1014 6 10 N/A
4:53 am 04:53 Clear with Mist and Fog 70 21.1 68 20 93 93 N N/A 29.94 1014 5 8 N/A
5:53 am 05:53 Clear with Mist and Fog 70 21.1 69 20.6 97 97 N N/A 29.96 1014 5 8 N/A
6:53 am 06:53 Sunny 69 20.6 69 20.6 100 100 N N/A 29.97 1015 7 11 N/A
7:53 am 07:53 Sunny 73 22.8 71 21.7 94 94 N N/A 29.98 1015 7 11 N/A
8:53 am 08:53 Sunny 77 25 72 22.2 85 85 N N/A 29.98 1015 10 16 N/A
9:53 am 09:53 Mostly Sunny 82 27.8 73 22.8 74 74 N N/A 29.98 1015 10 16 N/A
10:53 am 10:53 Mostly Sunny 86 30 72 22.2 63 63 N N/A 29.98 1015 10 16 N/A
11:53 am 11:53 Partly Cloudy 88 31.1 65 18.3 46 46 ENE 8 13 29.98 1015 10 16 N/A
12:53 pm 12:53 Partly Cloudy 89 31.7 65 18.3 45 45 ENE 6 9 29.98 1015 10 16 N/A
1:53 pm 13:53 Mostly Sunny 89 31.7 66 18.9 47 47 NNW 6 9 29.98 1015 10 16 N/A
2:53 pm 14:53 Mostly Cloudy 88 31.1 64 17.8 45 45 NE 5 7 29.97 1015 10 16 N/A
3:53 pm 15:53 Mostly Sunny 89 31.7 62 16.7 41 41 N 12 19 29.97 1015 10 16 N/A
4:53 pm 16:53 Partly Cloudy 87 30.6 66 18.9 50 50 NE 7 11 29.97 1015 10 16 N/A
5:53 pm 17:53 Partly Cloudy 89 31.7 66 18.9 47 47 NE 9 15 29.96 1015 10 16 N/A
6:53 pm 18:53 Mostly Sunny 86 30 65 18.3 49 49 ENE 10 17 29.96 1014 10 16 N/A
7:53 pm 19:53 Sunny 84 28.9 64 17.8 51 51 ENE 6 9 29.97 1015 10 16 N/A
8:53 pm 20:53 Sunny 76 24.4 66 18.9 72 72 N N/A 29.98 1015 10 16 N/A
9:53 pm 21:53 Clear 73 22.8 66 18.9 79 79 N N/A 30.00 1016 10 16 N/A
10:53 pm 22:53 Clear 69 20.6 65 18.3 87 87 N N/A 30.02 1017 10 16 N/A
11:53 pm 23:53 Clear 68 20 65 18.3 90 90 N N/A 30.02 1017 10 16 N/A

Powered by AerisWeather